Location: Springfield
(37.2150°N, 93.2980°W)
Time: 11:21:11
(UTC-05:00)

Daily predictions for brighter satellites

Satellite Brightness Start Highest point End
(mag) Time Altitude Azimuth Time Altitude Azimuth Time Altitude Azimuth
Atlas Centaur 2 3.1 20:47:27 10° WSW 20:53:47 48° S 21:01:24 10° E
Meteor 2-9 Rocket 4.3 20:50:42 10° N 20:56:26 70° E 21:02:16 10° SSE
Envisat 4.3 20:55:09 10° ESE 20:59:14 25° ENE 21:03:20 10° NNE
Cosmos 2034 Rocket 4.1 20:59:06 10° N 21:05:25 62° E 21:11:38 10° SSE
Cosmos 1461 3.0 21:04:03 10° NNW 21:08:17 74° WSW 21:12:18 10° SSE
APEX 4.3 21:05:40 10° NNW 21:10:05 64° WSW 21:15:49 10° SSE
Cosmos 1943 3.7 21:05:38 10° S 21:10:47 37° ESE 21:15:58 10° NE
SJ-11-01 4.5 21:07:53 10° SSE 21:12:27 56° ENE 21:17:01 10° N
Cosmos 1939 Rocket 3.5 21:13:44 10° SE 21:17:37 41° ENE 21:21:31 10° N
H-2A R/B 3.6 21:16:33 10° S 21:20:23 51° W 21:24:16 10° NNW
Cosmos 1346 Rocket 4.1 21:27:06 16° SE 21:28:57 22° E 21:32:00 10° NE
Cosmos 1992 Rocket 4.3 21:28:54 10° N 21:33:59 51° ENE 21:37:49 17° SE
SeaSat 1 3.4 21:35:39 16° ESE 21:39:00 34° ENE 21:43:26 10° N
ARGOS 4.5 21:36:49 15° ESE 21:39:59 24° ENE 21:44:15 10° NNE
COSMOS 2455 3.3 21:34:57 10° SW 21:40:53 65° WNW 21:46:53 10° NNE
ALOS 4.1 21:41:23 10° SSW 21:45:24 28° W 21:49:26 10° NW
ISS -0.4 21:45:32 10° W 21:48:04 20° NNW 21:50:36 10° NNE
MetOp-B 4.5 21:45:19 19° SE 21:48:55 50° ENE 21:54:05 10° N
Cosmos 2369 Rocket 2.3 21:50:15 10° NNW 21:55:51 62° ENE 21:59:13 24° SE
CZ-4B R/B 3.7 21:50:54 10° NNE 21:55:56 53° ESE 21:59:55 16° S
BREEZE-M DEB (TANK) 3.2 21:55:12 10° WNW 21:57:09 26° SW 21:57:38 24° SSW
Cosmos 1190 Rocket 3.9 21:52:19 10° SSW 21:57:36 79° ESE 22:02:56 10° NNE
Cosmos 1825 Rocket 3.5 21:54:32 15° S 21:58:13 73° E 22:02:38 10° N
Cosmos 1766 4.5 21:58:47 10° NNE 22:02:14 27° ENE 22:03:02 25° E
CZ-2C R/B 3.7 22:04:42 10° WSW 22:04:59 10° W 22:05:17 10° W
PSLV R/B 4.4 22:02:24 10° WNW 22:05:48 43° N 22:08:17 17° ENE
H-2A R/B 3.6 22:04:51 16° E 22:06:34 19° ENE 22:10:04 10° NNE
ATLAS 3B R/B 3.0 21:59:15 10° SSW 22:06:59 86° WNW 22:14:36 10° NNE
CZ-4 R/B 4.3 22:02:18 10° NNE 22:07:06 45° E 22:09:21 28° SSE
YAOGAN 6 2.9 22:06:29 36° SE 22:07:36 50° ENE 22:11:15 10° N
Cosmos 1140 Rocket 4.5 22:07:17 25° ESE 22:08:00 26° E 22:12:17 10° NE
Milstar 3 Cent rocket 4.3 22:07:01 10° WSW 22:10:23 14° SW 22:12:55 10° S
SPOT 5 2.8 22:11:38 23° S 22:14:16 66° WSW 22:18:34 10° NNW
CZ-4 SHROUD 4.1 22:13:33 27° SSW 22:14:51 44° W 22:17:54 10° NNW
Cosmos 676 Rocket 4.0 22:10:41 16° S 22:14:55 67° ESE 22:20:13 10° NNE
SPOT 1/Viking Rocket 3.6 22:12:55 30° SE 22:15:22 63° ENE 22:20:28 10° N
Terra 3.4 22:14:42 19° E 22:15:53 20° ENE 22:19:21 10° NNE
H-2A R/B 3.8 22:13:45 10° SSW 22:17:25 28° W 22:21:10 10° NW
Lacrosse 4 Rocket 2.1 22:14:48 10° SW 22:18:44 53° WNW 22:22:46 10° NNE
UNK 4.4 22:13:42 10° N 22:19:13 76° WNW 22:25:01 10° SSW
PSLV R/B 4.4 22:20:04 27° SW 22:21:09 37° W 22:24:04 10° NNW
USA 234 3.9 22:21:50 21° E 22:26:07 49° NE 22:32:23 10° NW
Cosmos 2263 4.1 22:23:30 10° NNW 22:29:09 84° ENE 22:31:28 37° SSE
COSMOS 2406 3.4 22:33:42 39° SSE 22:35:14 48° ESE 22:40:43 10° NNE
Envisat 4.3 22:34:27 15° SSW 22:38:03 34° W 22:42:39 10° NNW
USA 245 4.2 22:36:15 32° S 22:39:00 77° WSW 22:44:01 10° NNW
CZ-4C R/B 3.5 22:38:41 54° ESE 22:39:08 58° ENE 22:43:05 10° N
Cosmos 407 Rocket 4.3 22:37:22 10° SW 22:42:28 50° WNW 22:47:33 10° N
Atlas Centaur 2 3.2 22:36:00 10° W 22:43:07 49° S 22:46:02 36° SE
SL-27 R/B 2.7 22:45:17 58° NNE 22:45:17 58° NNE 22:48:03 10° NNE
DMSP B5D2-2 4.5 22:40:06 10° NNE 22:45:05 41° E 22:45:23 41° ESE
Cosmos 1943 Rocket 2.2 22:43:29 10° NNW 22:49:01 66° ENE 22:50:26 48° SE
Cosmos-2242 3.0 22:46:55 10° N 22:51:19 68° E 22:51:34 66° ESE
USA 238 DEB 3.7 22:45:00 10° SSW 22:52:06 83° ESE 22:59:11 10° NE
USA 238 3.6 22:45:05 10° SSW 22:52:11 82° ESE 22:59:17 10° NE
Cosmos 1953 2.5 22:52:42 10° N 22:56:18 59° NE 22:56:18 59° NE
Kosmos-1675 4.0 22:57:02 38° WSW 22:58:01 61° NW 23:05:41 10° NNE
SL-08 RB Rocket 3.8 22:57:31 58° SSW 22:58:16 71° WSW 23:02:47 10° NNW
Spot 2 4.3 22:59:19 10° NNE 23:04:13 67° ESE 23:04:32 65° SE
Cosmos 1607 3.8 23:01:39 35° SSW 23:04:27 77° ESE 23:10:40 10° NNE
Cosmos 2279 Rocket 4.2 23:01:45 10° NNW 23:07:55 65° W 23:10:20 38° SSW
Cosmos 1842 4.2 23:10:38 41° W 23:11:03 43° W 23:14:48 10° N
CZ-4C R/B 3.1 23:17:09 33° ENE 23:17:09 33° ENE 23:20:56 10° NE
Cosmos 2208 Rocket 3.9 23:10:30 10° NNW 23:15:40 68° ENE 23:15:59 66° E
SeaSat 1 3.8 23:15:27 26° SW 23:16:29 29° WSW 23:20:45 10° NW
ARGOS 4.1 23:18:20 33° SW 23:19:57 40° W 23:25:02 10° NNW
CARTOSAT-1 3.7 23:22:12 71° WNW 23:22:12 71° WNW 23:26:15 10° NNW
NOSS 3-2 (C) 3.9 23:27:23 43° E 23:27:23 43° E 23:32:39 10° NE
Cosmos 1741 Rocket 4.1 23:25:43 59° SW 23:26:38 75° WNW 23:31:58 10° NNE
Cosmos 2369 Rocket 4.3 23:36:01 10° WNW 23:39:15 16° W 23:41:02 14° WSW
H-2A R/B 2.6 23:45:29 45° WSW 23:45:35 45° W 23:50:26 10° NNW
Cosmos 2344 4.4 23:46:20 32° E 23:46:20 32° E 23:52:37 10° NE
Cosmos 1570 Rocket 4.4 23:43:26 10° NNW 23:48:38 54° WSW 23:48:38 54° WSW
Meteor 2-5 Rocket 3.6 23:48:37 84° SSE 23:48:50 88° E 23:54:38 10° N
Spot 4 4.4 23:51:05 50° W 23:51:05 50° W 23:55:22 10° NNW
Cosmos 1340 4.3 23:52:34 32° N 23:52:34 32° N 23:54:46 10° N
Terra 2.8 23:53:35 37° W 23:53:35 37° W 23:57:46 10° NNW
